BREEZE-KM R/B, 41336

Orbit data source: Space-Track

BREEZE-KM R/B, 41336 is space debris in SSO originally from a launch on Tue, 16 Feb 2016 UTC launched from the Plesetsk Missile And Space Complex (PKMTR). Debris objects in space refer to the collection of defunct objects orbiting the Earth. Examples of debris include non-operational satellites, rocket bodies, and fragments generated from explosions, collisions, or faulty payload assembly.

Loading next visibility...
Identifier
41336, 2016-011B
Orbit
SSO
Country
Flag of CISCIS
Related business
Manufacturer
Khrunichev
Mission
Spacecraft
Bus & Motor
BRIZ, S5.92
Mass
2,370 kg wet, 2,370 kg dry
Launch date (UTC)
2016-02-16 (10 years ago)
Launch vehicle
Unknown
Launch site
Plesetsk Missile And Space Complex (PKMTR)
Object type
Payload
Rocket body
Debris
Shape & HBR
Hex Cyl + 1 Rod, 2.0 m
Radar Cross Section
10.190 m², Large (>1 m²)

Expand to show TLE details & history
Last TLE update: 20 hours ago

TLE from 20 hours ago
0 BREEZE-KM R/B
1 41336U 16011B   25261.02025616  .00006159  00000-0  18603-3 0  9996
2 41336  98.6834  84.3425 0151714 292.3709  66.1508 15.24130376525925
Epoch: 2025-09-18T00:29Z
TLE epoch observation values (Epoch: 2025-09-18T00:29:10.132Z)
Latitude
0.00002°
Longitude
79.86243°
Altitude
455.63 km
Speed
7.662 km/s
True Right ascension
05h 37m 22s
True Declination
0° 00' 00"
Sunlit
Object was in daylight at epoch
Visualization orbit readout
Latitude
Unknown
Longitude
Unknown
Altitude
Unknown
Speed
Unknown
Apparent Right ascension
Unknown
Apparent Declination
Unknown
Sunlit
N/A
Visualization observer readout
Local Sidereal Time
13:02:41
Azimuth
Unknown
Elevation
Unknown
Doppler factor
Unknown
Orbital elements
Apogee altitude
594.622 km
Perigee altitude
386.211 km
Semi-major axis
6,868.554 km
Eccentricity
0.01517
Inclination
98.6834°
RAAN
84.3425°
Arg. of periapsis
292.3709°
True anomaly
67.75294°
Mean anomaly
66.1508°
Eccentric anomaly
66.95066°
Mean motion
3.81281 °/min
Orbital period
94.42 mins
BSTAR
0.00018603
Loading maneuver chart data...
Computing Atmospheric mass density...
Loading historical data...
Loading historical data...
Loading historical data...
Loading historical data...
Loading historical data...
Loading historical data...
Loading historical data...
Other satellites on launch #11 in the year 2016 (2016-02-16 UTC)

Documentation

Showing up to 5 results
|